Weather History for Waukegan, IL

Change the Weather History Date:

Saturday, August 9, 2014

  Actual Average Record
Temperature  
Mean Temperature 69 °F -  
Max Temperature 75 °F 80 °F 95 °F (2001)
Min Temperature 63 °F 61 °F 53 °F (2002)
Degree Days  
Heating Degree Days 0 0  
Month to date heating degree days 0 0  
Since 1 June heating degree days 107 98  
Since 1 July heating degree days 34 12  
Cooling Degree Days 4 6  
Month to date cooling degree days 38 54  
Year to date cooling degree days 245 389  
Since 1 June cooling degree days 222 364  
Growing Degree Days 20 (Base 50)    
Moisture  
Dew Point 60 °F    
Average Humidity 70    
Maximum Humidity 87    
Minimum Humidity 53    
Precipitation  
Precipitation 0.00 in 0.14 in 0.83 in (2012)
Month to date precipitation 0.16 1.12  
Year to date precipitation 19.40 21.74  
Sea Level Pressure  
Sea Level Pressure 30.08 in    
Wind  
Wind Speed 8 mph (ENE)    
Max Wind Speed 14 mph    
Max Gust Speed 18 mph    
Visibility 9 miles    
Events      
T = Trace of Precipitation, MM = Missing Value Source: NWS Daily Summary

Daily Weather History Graph

Daily Weather History Graph

Search for Another Location

Airport:

Trip Planner

Search our weather history database for the weather conditions in past years. The results will help you decide how hot, cold, wet, or windy it might be!

Date:

Astronomy

Aug. 09, 2014 Rise Set
Actual Time 5:52 AM CDT 8:01 PM CDT
Civil Twilight 5:21 AM CDT 8:31 PM CDT
Nautical Twilight 4:43 AM CDT 9:09 PM CDT
Astronomical Twilight 4:01 AM CDT 9:51 PM CDT
Moon 7:01 PM CDT (8/9) 4:32 AM CDT (8/9)
Length of Visible Light 15h 10m
Length of Day
14h 08m
Waxing Gibbous, 98% of the Moon is Illuminated
Aug 9
Waxing Gibbous
Aug 10
Full
Aug 17
Last Quarter
Aug 25
New
Sep 2
First Quarter

Hourly Weather History & Observations

Time (CDT) Temp. Dew Point Humidity Pressure Visibility Wind Dir Wind Speed Gust Speed Precip Events Conditions
12:52 AM 68.0 °F 61.0 °F 78% 30.06 in 10.0 mi ENE 6.9 mph - N/A   Clear
1:52 AM 68.0 °F 62.1 °F 81% 30.05 in 9.0 mi East 8.1 mph - N/A   Clear
2:52 AM 68.0 °F 62.1 °F 81% 30.06 in 9.0 mi East 5.8 mph - N/A   Clear
3:52 AM 64.0 °F 61.0 °F 90% 30.07 in 8.0 mi Calm Calm - N/A   Clear
4:52 AM 64.0 °F 61.0 °F 90% 30.07 in 7.0 mi East 3.5 mph - N/A   Clear
5:52 AM 66.0 °F 60.1 °F 81% 30.07 in 8.0 mi East 5.8 mph - N/A   Clear
6:52 AM 64.9 °F 60.1 °F 84% 30.09 in 8.0 mi ENE 3.5 mph - N/A   Clear
7:52 AM 69.1 °F 62.1 °F 78% 30.09 in 8.0 mi East 9.2 mph - N/A   Clear
8:52 AM 71.1 °F 62.1 °F 73% 30.09 in 8.0 mi ENE 11.5 mph - N/A   Clear
9:52 AM 71.1 °F 62.1 °F 73% 30.11 in 8.0 mi ENE 9.2 mph - N/A   Partly Cloudy
10:52 AM 72.0 °F 61.0 °F 68% 30.12 in 9.0 mi ENE 6.9 mph - N/A   Clear
11:52 AM 73.0 °F 61.0 °F 66% 30.11 in 9.0 mi ENE 9.2 mph - N/A   Clear
12:52 PM 73.9 °F 57.9 °F 57% 30.10 in 10.0 mi NE 8.1 mph - N/A   Clear
1:52 PM 73.9 °F 57.0 °F 55% 30.09 in 10.0 mi ENE 11.5 mph - N/A   Clear
2:52 PM 75.0 °F 57.0 °F 53% 30.08 in 10.0 mi ENE 9.2 mph - N/A   Clear
3:52 PM 73.9 °F 55.0 °F 52% 30.08 in 10.0 mi ENE 11.5 mph - N/A   Clear
4:52 PM 73.9 °F 55.9 °F 53% 30.07 in 10.0 mi NE 9.2 mph - N/A   Clear
5:52 PM 73.0 °F 57.0 °F 57% 30.05 in 10.0 mi NE 6.9 mph - N/A   Clear
6:52 PM 71.1 °F 57.0 °F 61% 30.05 in 10.0 mi NNE 9.2 mph - N/A   Clear
7:52 PM 68.0 °F 59.0 °F 73% 30.06 in 8.0 mi NNE 8.1 mph - N/A   Clear
8:52 PM 66.0 °F 60.1 °F 81% 30.08 in 9.0 mi NNE 6.9 mph - N/A   Clear
11:52 PM 66.9 °F 60.1 °F 79% 30.05 in 10.0 mi NNE 5.8 mph - N/A   Overcast